EZY52AE BIKF-EGPH

Flight info

Callsign EZY52AE
Flight time 2h 0m
Altitude 37000
Route OSKUM1B OSKUM DCT RATSU/N0441F370 DCT BARKU DCT BRUCE/N0364F250 Q602 CLYDE DCT STIRA
Aircraft A320/M-SDE2E3FGHIRWXY/LB1

Departure

Time 2026-04-26 16:32
Airport Keflavik International Airport (BIKF)

Arrival

Time 2026-04-26 18:32
Airport Edinburgh Airport (EGPH)
Time Latitude Longitude Altitude Speed Heading
2026-04-26 16:12 63.97551 -22.58947 143 ft 0 kts 104°
2026-04-26 16:22 63.97551 -22.58948 143 ft 1 kts 104°
2026-04-26 16:23 63.97554 -22.58969 143 ft 2 kts 104°
2026-04-26 16:23 63.97562 -22.59023 144 ft 4 kts 123°
2026-04-26 16:23 63.97580 -22.59065 144 ft 4 kts 157°
2026-04-26 16:23 63.97605 -22.59074 144 ft 4 kts 191°
2026-04-26 16:24 63.97618 -22.59067 144 ft 0 kts 199°
2026-04-26 16:25 63.97616 -22.59069 144 ft 3 kts 199°
2026-04-26 16:25 63.97510 -22.59161 144 ft 26 kts 205°
2026-04-26 16:26 63.97333 -22.59321 144 ft 28 kts 202°
2026-04-26 16:26 63.97232 -22.59462 144 ft 21 kts 245°
2026-04-26 16:26 63.97301 -22.59922 145 ft 27 kts 292°
2026-04-26 16:26 63.97371 -22.60303 145 ft 25 kts 292°
2026-04-26 16:27 63.97429 -22.60657 146 ft 26 kts 285°
2026-04-26 16:27 63.97478 -22.61082 146 ft 27 kts 284°
2026-04-26 16:27 63.97524 -22.61473 147 ft 26 kts 285°
2026-04-26 16:27 63.97573 -22.61884 149 ft 26 kts 285°
2026-04-26 16:28 63.97617 -22.62254 150 ft 25 kts 285°
2026-04-26 16:28 63.97665 -22.62668 152 ft 26 kts 285°
2026-04-26 16:28 63.97709 -22.63034 154 ft 22 kts 285°
2026-04-26 16:28 63.97751 -22.63385 156 ft 26 kts 285°
2026-04-26 16:29 63.97795 -22.63763 158 ft 26 kts 285°
2026-04-26 16:29 63.97844 -22.64173 160 ft 26 kts 285°
2026-04-26 16:29 63.97893 -22.64587 161 ft 26 kts 285°
2026-04-26 16:29 63.97942 -22.65008 163 ft 28 kts 285°
2026-04-26 16:30 63.97990 -22.65397 164 ft 23 kts 294°
2026-04-26 16:30 63.98123 -22.65467 165 ft 24 kts
2026-04-26 16:30 63.98278 -22.65467 165 ft 20 kts
2026-04-26 16:30 63.98404 -22.65465 166 ft 16 kts
2026-04-26 16:31 63.98493 -22.65405 169 ft 17 kts 56°
2026-04-26 16:31 63.98505 -22.64761 164 ft 73 kts 90°
2026-04-26 16:31 63.98504 -22.63136 159 ft 130 kts 90°
2026-04-26 16:31 63.98496 -22.60888 551 ft 142 kts 95°
2026-04-26 16:32 63.98493 -22.58636 1280 ft 142 kts 96°
2026-04-26 16:32 63.98491 -22.57082 1602 ft 151 kts 97°
2026-04-26 16:32 63.98479 -22.53603 2030 ft 180 kts 96°
2026-04-26 16:32 63.98469 -22.50569 2322 ft 203 kts 95°
2026-04-26 16:33 63.98461 -22.47152 2674 ft 228 kts 95°
2026-04-26 16:33 63.98432 -22.43431 3323 ft 239 kts 101°
2026-04-26 16:33 63.97989 -22.39773 4124 ft 243 kts 113°
2026-04-26 16:33 63.97411 -22.36123 4979 ft 247 kts 114°
2026-04-26 16:34 63.96807 -22.32411 5743 ft 255 kts 114°
2026-04-26 16:34 63.96182 -22.28611 5957 ft 256 kts 115°
2026-04-26 16:34 63.95554 -22.24799 6017 ft 258 kts 113°
2026-04-26 16:34 63.94925 -22.20984 6019 ft 258 kts 114°
2026-04-26 16:35 63.94296 -22.17169 6010 ft 259 kts 111°
2026-04-26 16:35 63.93664 -22.13346 6012 ft 257 kts 114°
2026-04-26 16:35 63.93042 -22.09558 6013 ft 256 kts 113°
2026-04-26 16:35 63.92409 -22.05711 6435 ft 263 kts 113°
2026-04-26 16:36 63.91768 -22.01823 6917 ft 264 kts 113°
2026-04-26 16:36 63.91127 -21.97947 7005 ft 260 kts 115°
2026-04-26 16:36 63.90494 -21.94131 7016 ft 259 kts 113°
2026-04-26 16:36 63.89863 -21.90331 7021 ft 255 kts 114°
2026-04-26 16:37 63.89234 -21.86553 7016 ft 256 kts 113°
2026-04-26 16:37 63.88596 -21.82731 7188 ft 264 kts 113°
2026-04-26 16:37 63.87944 -21.78837 8098 ft 264 kts 113°
2026-04-26 16:37 63.87501 -21.76190 8657 ft 267 kts 114°
2026-04-26 16:38 63.86621 -21.70956 9689 ft 272 kts 114°
2026-04-26 16:38 63.85949 -21.66964 9896 ft 269 kts 115°
2026-04-26 16:38 63.85268 -21.62930 9939 ft 288 kts 113°
2026-04-26 16:38 63.84767 -21.59983 9936 ft 299 kts 115°
2026-04-26 16:39 63.84131 -21.55482 10027 ft 309 kts 106°
2026-04-26 16:39 63.83609 -21.50702 10680 ft 315 kts 107°
2026-04-26 16:39 63.83068 -21.45841 11314 ft 322 kts 107°
2026-04-26 16:39 63.82510 -21.40878 11990 ft 328 kts 107°
2026-04-26 16:40 63.81943 -21.35889 12639 ft 334 kts 107°
2026-04-26 16:40 63.81355 -21.30746 12896 ft 339 kts 108°
2026-04-26 16:40 63.80764 -21.25584 12947 ft 339 kts 108°
2026-04-26 16:40 63.80164 -21.20335 13040 ft 342 kts 108°
2026-04-26 16:41 63.79566 -21.15100 13777 ft 345 kts 107°
2026-04-26 16:41 63.78969 -21.09888 14389 ft 349 kts 107°
2026-04-26 16:41 63.78354 -21.04542 15002 ft 353 kts 107°
2026-04-26 16:41 63.77728 -20.99144 15600 ft 357 kts 108°
2026-04-26 16:42 63.77090 -20.93687 16184 ft 361 kts 108°
2026-04-26 16:42 63.76441 -20.88165 16758 ft 366 kts 106°
2026-04-26 16:42 63.75783 -20.82565 17314 ft 371 kts 106°
2026-04-26 16:42 63.75114 -20.76893 17849 ft 377 kts 107°
2026-04-26 16:43 63.74431 -20.71146 18398 ft 381 kts 106°
2026-04-26 16:43 63.73739 -20.65339 18956 ft 384 kts 105°
2026-04-26 16:43 63.73039 -20.59476 19384 ft 390 kts 105°
2026-04-26 16:43 63.72326 -20.53524 19843 ft 395 kts 105°
2026-04-26 16:44 63.71611 -20.47562 20549 ft 393 kts 105°
2026-04-26 16:44 63.70710 -20.41732 21145 ft 394 kts 114°
2026-04-26 16:44 63.69567 -20.36076 21616 ft 400 kts 115°
2026-04-26 16:44 63.68404 -20.30351 22100 ft 404 kts 115°
2026-04-26 16:45 63.67220 -20.24548 22485 ft 410 kts 115°
2026-04-26 16:45 63.66025 -20.18709 23065 ft 412 kts 115°
2026-04-26 16:45 63.64818 -20.12833 23580 ft 414 kts 115°
2026-04-26 16:45 63.63603 -20.06931 23974 ft 417 kts 115°
2026-04-26 16:46 63.62377 -20.00981 24360 ft 421 kts 115°
2026-04-26 16:46 63.61138 -19.94984 24717 ft 425 kts 115°
2026-04-26 16:46 63.59886 -19.88942 25128 ft 427 kts 115°
2026-04-26 16:46 63.58618 -19.82837 25376 ft 434 kts 115°
2026-04-26 16:47 63.57332 -19.76681 25744 ft 437 kts 115°
2026-04-26 16:47 63.56033 -19.70482 26079 ft 441 kts 115°
2026-04-26 16:47 63.54722 -19.64247 26437 ft 444 kts 115°
2026-04-26 16:47 63.53400 -19.57968 26782 ft 446 kts 115°
2026-04-26 16:48 63.52073 -19.51664 27227 ft 446 kts 115°
2026-04-26 16:48 63.50748 -19.45393 27742 ft 445 kts 115°
2026-04-26 16:48 63.49417 -19.39120 28109 ft 447 kts 115°
2026-04-26 16:48 63.48073 -19.32816 28440 ft 450 kts 116°
2026-04-26 16:49 63.46718 -19.26487 28741 ft 453 kts 115°
2026-04-26 16:49 63.45354 -19.20113 29032 ft 456 kts 116°
2026-04-26 16:49 63.43975 -19.13698 29326 ft 459 kts 116°
2026-04-26 16:49 63.42585 -19.07251 29602 ft 462 kts 116°
2026-04-26 16:50 63.41181 -19.00769 29882 ft 465 kts 116°
2026-04-26 16:50 63.39765 -18.94249 30154 ft 468 kts 116°
2026-04-26 16:50 63.38341 -18.87695 30402 ft 470 kts 116°
2026-04-26 16:50 63.36910 -18.81130 30644 ft 472 kts 116°
2026-04-26 16:51 63.35469 -18.74548 30896 ft 474 kts 116°
2026-04-26 16:51 63.34019 -18.67956 31136 ft 475 kts 116°
2026-04-26 16:51 63.32561 -18.61348 31407 ft 475 kts 116°
2026-04-26 16:51 63.31105 -18.54758 31773 ft 474 kts 117°
2026-04-26 16:52 63.29658 -18.48222 32251 ft 468 kts 117°
2026-04-26 16:52 63.28707 -18.43948 32556 ft 465 kts 117°
2026-04-26 16:52 63.26791 -18.35337 32975 ft 464 kts 117°
2026-04-26 16:52 63.25355 -18.28908 33220 ft 466 kts 117°
2026-04-26 16:53 63.23913 -18.22475 33527 ft 465 kts 117°
2026-04-26 16:53 63.22469 -18.16066 33845 ft 464 kts 117°
2026-04-26 16:53 63.21043 -18.09761 34143 ft 464 kts 117°
2026-04-26 16:53 63.19574 -18.03284 34351 ft 464 kts 117°
2026-04-26 16:54 63.18140 -17.96981 34557 ft 465 kts 117°
2026-04-26 16:54 63.16663 -17.90508 34771 ft 465 kts 117°
2026-04-26 16:54 63.15204 -17.84127 35001 ft 465 kts 117°
2026-04-26 16:54 63.13763 -17.77837 35231 ft 464 kts 118°
2026-04-26 16:55 63.12283 -17.71386 35437 ft 464 kts 118°
2026-04-26 16:55 63.10818 -17.65027 35638 ft 464 kts 118°
2026-04-26 16:55 63.09369 -17.58760 35833 ft 464 kts 118°
2026-04-26 16:55 63.07880 -17.52339 36089 ft 463 kts 118°
2026-04-26 16:56 63.04970 -17.39812 36498 ft 462 kts 118°
2026-04-26 16:56 63.03500 -17.33522 36677 ft 462 kts 118°
2026-04-26 16:56 63.02024 -17.27243 36848 ft 462 kts 119°
2026-04-26 16:57 63.00544 -17.20971 36974 ft 462 kts 119°
2026-04-26 16:57 62.96100 -17.02218 37000 ft 461 kts 119°
2026-04-26 16:58 62.93615 -16.91766 36995 ft 461 kts 119°
2026-04-26 16:59 62.88665 -16.71077 37003 ft 461 kts 119°
2026-04-26 17:00 62.82657 -16.46318 37023 ft 460 kts 120°
2026-04-26 17:00 62.78133 -16.27863 37014 ft 459 kts 120°
2026-04-26 17:01 62.75112 -16.15571 37002 ft 459 kts 120°
2026-04-26 17:01 62.72075 -16.03304 37009 ft 460 kts 120°
2026-04-26 17:02 62.69016 -15.91073 37021 ft 460 kts 120°
2026-04-26 17:02 62.65949 -15.78851 37023 ft 460 kts 120°
2026-04-26 17:03 62.62876 -15.66648 37021 ft 460 kts 120°
2026-04-26 17:03 62.59793 -15.54472 37028 ft 460 kts 120°
2026-04-26 17:04 62.56692 -15.42323 37015 ft 460 kts 120°
2026-04-26 17:04 62.53579 -15.30188 37014 ft 461 kts 120°
2026-04-26 17:05 62.50452 -15.18067 37023 ft 461 kts 121°
2026-04-26 17:05 62.47320 -15.05955 37022 ft 461 kts 121°
2026-04-26 17:06 62.44178 -14.93859 37025 ft 461 kts 121°
2026-04-26 17:06 62.41015 -14.81803 37027 ft 462 kts 121°
2026-04-26 17:07 62.37845 -14.69777 37039 ft 461 kts 121°
2026-04-26 17:07 62.34669 -14.57775 37037 ft 461 kts 121°
2026-04-26 17:08 62.31484 -14.45789 37036 ft 461 kts 121°
2026-04-26 17:08 62.28285 -14.33839 37043 ft 461 kts 121°
2026-04-26 17:09 62.25618 -14.23922 37045 ft 461 kts 121°
2026-04-26 17:09 62.21873 -14.10080 37046 ft 461 kts 121°
2026-04-26 17:10 62.18642 -13.98198 37056 ft 462 kts 122°
2026-04-26 17:10 62.15396 -13.86334 37060 ft 462 kts 122°
2026-04-26 17:11 62.12149 -13.74508 37049 ft 461 kts 122°
2026-04-26 17:11 62.08892 -13.62718 37055 ft 461 kts 122°
2026-04-26 17:12 62.03980 -13.45066 37056 ft 461 kts 122°
2026-04-26 17:13 61.99046 -13.27483 37062 ft 461 kts 122°
2026-04-26 17:14 61.94109 -13.09952 37057 ft 461 kts 122°
2026-04-26 17:14 61.89135 -12.92503 37058 ft 460 kts 123°
2026-04-26 17:15 61.84160 -12.75112 37062 ft 460 kts 123°
2026-04-26 17:16 61.80825 -12.63563 37067 ft 460 kts 123°
2026-04-26 17:16 61.77481 -12.52032 37069 ft 460 kts 123°
2026-04-26 17:17 61.74128 -12.40533 37072 ft 460 kts 123°
2026-04-26 17:17 61.70757 -12.29051 37079 ft 460 kts 123°
2026-04-26 17:18 61.67378 -12.17588 37066 ft 460 kts 123°
2026-04-26 17:18 61.63996 -12.06142 37074 ft 460 kts 123°
2026-04-26 17:19 61.58934 -11.89114 37088 ft 460 kts 124°
2026-04-26 17:19 61.55504 -11.77680 37087 ft 460 kts 124°
2026-04-26 17:20 61.53241 -11.70178 37089 ft 459 kts 124°
2026-04-26 17:20 61.48691 -11.55136 37091 ft 459 kts 124°
2026-04-26 17:21 61.45262 -11.43851 37090 ft 459 kts 124°
2026-04-26 17:21 61.41820 -11.32600 37079 ft 460 kts 124°
2026-04-26 17:22 61.38361 -11.21374 37092 ft 460 kts 124°
2026-04-26 17:22 61.34902 -11.10158 37097 ft 460 kts 124°
2026-04-26 17:23 61.31443 -10.98972 37098 ft 459 kts 124°
2026-04-26 17:23 61.27974 -10.87815 37098 ft 459 kts 124°
2026-04-26 17:24 61.25078 -10.78566 37102 ft 459 kts 125°
2026-04-26 17:24 61.21586 -10.67467 37102 ft 459 kts 125°
2026-04-26 17:25 61.18083 -10.56390 37103 ft 459 kts 125°
2026-04-26 17:25 61.14572 -10.45337 37110 ft 459 kts 125°
2026-04-26 17:26 61.11057 -10.34316 37116 ft 458 kts 125°
2026-04-26 17:26 61.07539 -10.23340 37117 ft 458 kts 125°
2026-04-26 17:27 61.04017 -10.12395 37118 ft 457 kts 126°
2026-04-26 17:27 61.00347 -10.01714 37115 ft 455 kts 134°
2026-04-26 17:28 60.95586 -9.93299 37108 ft 450 kts 146°
2026-04-26 17:28 60.90528 -9.85698 37104 ft 451 kts 146°
2026-04-26 17:29 60.86318 -9.79368 37100 ft 451 kts 146°
2026-04-26 17:29 60.80387 -9.70482 37110 ft 452 kts 146°
2026-04-26 17:30 60.75304 -9.62909 37115 ft 452 kts 146°
2026-04-26 17:30 60.70212 -9.55361 37106 ft 452 kts 146°
2026-04-26 17:31 60.65119 -9.47850 37115 ft 452 kts 147°
2026-04-26 17:31 60.59952 -9.40620 37120 ft 449 kts 154°
2026-04-26 17:32 60.54323 -9.35246 37122 ft 447 kts 158°
2026-04-26 17:32 60.48668 -9.30006 37124 ft 447 kts 158°
2026-04-26 17:33 60.43014 -9.24752 37118 ft 447 kts 158°
2026-04-26 17:34 60.34571 -9.16928 37111 ft 447 kts 158°
2026-04-26 17:34 60.28906 -9.11720 37118 ft 448 kts 158°
2026-04-26 17:35 60.23236 -9.06532 37122 ft 448 kts 159°
2026-04-26 17:35 60.17562 -9.01376 37125 ft 448 kts 159°
2026-04-26 17:36 60.11883 -8.96229 37108 ft 448 kts 159°
2026-04-26 17:36 60.06202 -8.91089 37115 ft 448 kts 159°
2026-04-26 17:37 60.00514 -8.85963 37119 ft 449 kts 159°
2026-04-26 17:37 59.94819 -8.80842 37135 ft 449 kts 159°
2026-04-26 17:38 59.86257 -8.73185 37126 ft 450 kts 159°
2026-04-26 17:38 59.80547 -8.68102 37135 ft 450 kts 159°
2026-04-26 17:39 59.74826 -8.63043 37145 ft 450 kts 159°
2026-04-26 17:39 59.69109 -8.57993 37145 ft 450 kts 159°
2026-04-26 17:40 59.64356 -8.53813 37153 ft 450 kts 159°
2026-04-26 17:40 59.57668 -8.47956 37134 ft 450 kts 160°
2026-04-26 17:41 59.51987 -8.43001 37148 ft 449 kts 160°
2026-04-26 17:41 59.46273 -8.38031 37154 ft 449 kts 160°
2026-04-26 17:42 59.40560 -8.33071 37160 ft 449 kts 160°
2026-04-26 17:42 59.34848 -8.28131 37158 ft 449 kts 160°
2026-04-26 17:43 59.29135 -8.23214 37145 ft 449 kts 160°
2026-04-26 17:43 59.23417 -8.18307 37149 ft 449 kts 160°
2026-04-26 17:44 59.17692 -8.13425 37163 ft 449 kts 160°
2026-04-26 17:44 59.11956 -8.08553 37173 ft 450 kts 160°
2026-04-26 17:45 59.06221 -8.03691 37155 ft 450 kts 160°
2026-04-26 17:45 59.00479 -7.98840 37169 ft 450 kts 160°
2026-04-26 17:46 58.94738 -7.94007 37172 ft 450 kts 160°
2026-04-26 17:46 58.88996 -7.89189 37173 ft 450 kts 160°
2026-04-26 17:47 58.84180 -7.85155 37182 ft 450 kts 161°
2026-04-26 17:47 58.77498 -7.79595 37167 ft 450 kts 161°
2026-04-26 17:48 58.71747 -7.74828 37172 ft 450 kts 161°
2026-04-26 17:48 58.65993 -7.70071 37178 ft 450 kts 161°
2026-04-26 17:49 58.60236 -7.65329 37182 ft 450 kts 161°
2026-04-26 17:49 58.54478 -7.60598 37189 ft 450 kts 161°
2026-04-26 17:50 58.48720 -7.55892 37187 ft 450 kts 161°
2026-04-26 17:50 58.42960 -7.51206 37194 ft 450 kts 161°
2026-04-26 17:51 58.37198 -7.46528 37193 ft 450 kts 161°
2026-04-26 17:51 58.31442 -7.41871 37213 ft 449 kts 161°
2026-04-26 17:52 58.25690 -7.37243 37190 ft 448 kts 162°
2026-04-26 17:52 58.19948 -7.32627 37200 ft 448 kts 162°
2026-04-26 17:53 58.14215 -7.28032 37207 ft 448 kts 162°
2026-04-26 17:54 58.05607 -7.21181 37215 ft 447 kts 162°
2026-04-26 17:54 57.99869 -7.16629 37191 ft 447 kts 162°
2026-04-26 17:55 57.94131 -7.12099 37202 ft 447 kts 162°
2026-04-26 17:55 57.88395 -7.07569 37216 ft 447 kts 162°
2026-04-26 17:56 57.82655 -7.03049 37226 ft 447 kts 162°
2026-04-26 17:57 57.71163 -6.94094 37213 ft 447 kts 162°
2026-04-26 17:57 57.65418 -6.89634 37223 ft 447 kts 162°
2026-04-26 17:58 57.53919 -6.80735 37236 ft 447 kts 162°
2026-04-26 17:59 57.45285 -6.74118 37219 ft 447 kts 163°
2026-04-26 17:59 57.39528 -6.69715 37240 ft 447 kts 163°
2026-04-26 18:00 57.33772 -6.65318 37249 ft 448 kts 163°
2026-04-26 18:00 57.28010 -6.60937 37260 ft 447 kts 163°
2026-04-26 18:01 57.22251 -6.56578 37264 ft 447 kts 163°
2026-04-26 18:01 57.16491 -6.52243 37249 ft 447 kts 163°
2026-04-26 18:02 57.12679 -6.49377 37259 ft 447 kts 163°
2026-04-26 18:02 57.05023 -6.43640 37271 ft 446 kts 163°
2026-04-26 18:03 56.99277 -6.39347 37271 ft 446 kts 163°
2026-04-26 18:03 56.93532 -6.35060 37245 ft 446 kts 163°
2026-04-26 18:04 56.87790 -6.30796 37266 ft 445 kts 163°
2026-04-26 18:05 56.79182 -6.24417 37272 ft 445 kts 163°
2026-04-26 18:05 56.73439 -6.20189 37275 ft 445 kts 163°
2026-04-26 18:06 56.67692 -6.15973 37251 ft 445 kts 163°
2026-04-26 18:06 56.61947 -6.11776 37275 ft 445 kts 163°
2026-04-26 18:07 56.56203 -6.07584 37281 ft 445 kts 163°
2026-04-26 18:07 56.50460 -6.03409 37281 ft 444 kts 163°
2026-04-26 18:08 56.44718 -5.99254 37291 ft 444 kts 163°
2026-04-26 18:08 56.38977 -5.95111 37272 ft 444 kts 163°
2026-04-26 18:09 56.33236 -5.90988 37267 ft 444 kts 163°
2026-04-26 18:09 56.27577 -5.86463 37280 ft 450 kts 153°
2026-04-26 18:09 56.25040 -5.83111 37276 ft 457 kts 142°
2026-04-26 18:10 56.23544 -5.80426 37267 ft 461 kts 135°
2026-04-26 18:10 56.21051 -5.74063 36365 ft 475 kts 120°
2026-04-26 18:10 56.20140 -5.70496 35991 ft 474 kts 117°
2026-04-26 18:10 56.18811 -5.65102 35451 ft 471 kts 118°
2026-04-26 18:11 56.17466 -5.59769 34867 ft 468 kts 118°
2026-04-26 18:11 56.16105 -5.54478 34318 ft 465 kts 119°
2026-04-26 18:11 56.14722 -5.49163 33682 ft 463 kts 119°
2026-04-26 18:11 56.13365 -5.43962 33133 ft 458 kts 119°
2026-04-26 18:12 56.12020 -5.38808 32585 ft 455 kts 119°
2026-04-26 18:12 56.10685 -5.33692 32040 ft 452 kts 119°
2026-04-26 18:12 56.09359 -5.28607 31498 ft 449 kts 119°
2026-04-26 18:12 56.08046 -5.23567 30973 ft 446 kts 119°
2026-04-26 18:13 56.06735 -5.18551 30448 ft 443 kts 119°
2026-04-26 18:13 56.05432 -5.13583 29887 ft 439 kts 119°
2026-04-26 18:13 56.04158 -5.08727 29407 ft 434 kts 120°
2026-04-26 18:13 56.03298 -5.05445 29119 ft 430 kts 119°
2026-04-26 18:14 56.01613 -4.99030 28518 ft 422 kts 120°
2026-04-26 18:14 56.00363 -4.94308 28078 ft 418 kts 120°
2026-04-26 18:14 55.99123 -4.89633 27642 ft 415 kts 119°
2026-04-26 18:14 55.98064 -4.84922 27186 ft 415 kts 109°
2026-04-26 18:15 55.97508 -4.79863 26733 ft 416 kts 97°
2026-04-26 18:15 55.97509 -4.74712 26254 ft 416 kts 84°
2026-04-26 18:15 55.98076 -4.69668 25772 ft 414 kts 72°
2026-04-26 18:15 55.98974 -4.64791 25275 ft 413 kts 71°
2026-04-26 18:16 55.99867 -4.59929 24777 ft 412 kts 71°
2026-04-26 18:16 56.01621 -4.50206 23753 ft 411 kts 71°
2026-04-26 18:16 56.02489 -4.45342 23205 ft 409 kts 71°
2026-04-26 18:17 56.03347 -4.40516 22700 ft 407 kts 71°
2026-04-26 18:17 56.04202 -4.35708 22203 ft 404 kts 71°
2026-04-26 18:17 56.05048 -4.30928 21717 ft 402 kts 71°
2026-04-26 18:17 56.05889 -4.26171 21295 ft 398 kts 71°
2026-04-26 18:18 56.06725 -4.21448 20812 ft 397 kts 71°
2026-04-26 18:18 56.07554 -4.16753 20310 ft 396 kts 71°
2026-04-26 18:18 56.08374 -4.12089 19868 ft 393 kts 71°
2026-04-26 18:18 56.09190 -4.07441 19507 ft 388 kts 71°
2026-04-26 18:19 56.09996 -4.02844 19077 ft 386 kts 71°
2026-04-26 18:19 56.10793 -3.98288 18475 ft 381 kts 71°
2026-04-26 18:19 56.11574 -3.93807 17905 ft 370 kts 72°
2026-04-26 18:19 56.11911 -3.89293 17481 ft 367 kts 96°
2026-04-26 18:20 56.11187 -3.84989 17053 ft 359 kts 123°
2026-04-26 18:20 56.09559 -3.81725 16584 ft 349 kts 149°
2026-04-26 18:20 56.07397 -3.79926 16140 ft 340 kts 166°
2026-04-26 18:20 56.05904 -3.79067 15844 ft 340 kts 167°
2026-04-26 18:21 56.02887 -3.77371 15258 ft 339 kts 167°
2026-04-26 18:21 56.00635 -3.76119 14877 ft 337 kts 167°
2026-04-26 18:21 55.98402 -3.74876 14460 ft 336 kts 166°
2026-04-26 18:21 55.96191 -3.73640 13995 ft 332 kts 166°
2026-04-26 18:22 55.94019 -3.72423 13455 ft 321 kts 166°
2026-04-26 18:22 55.91914 -3.71242 13037 ft 317 kts 166°
2026-04-26 18:22 55.89812 -3.70064 12610 ft 316 kts 166°
2026-04-26 18:22 55.87718 -3.68891 12171 ft 315 kts 166°
2026-04-26 18:23 55.85627 -3.67724 11735 ft 315 kts 166°
2026-04-26 18:23 55.83538 -3.66559 11286 ft 314 kts 166°
2026-04-26 18:23 55.81454 -3.65401 10854 ft 313 kts 166°
2026-04-26 18:23 55.79387 -3.64253 10428 ft 312 kts 166°
2026-04-26 18:24 55.77337 -3.63115 10166 ft 305 kts 166°
2026-04-26 18:24 55.75345 -3.62005 9919 ft 297 kts 166°
2026-04-26 18:24 55.73355 -3.61002 9485 ft 293 kts 175°
2026-04-26 18:24 55.71417 -3.61335 9316 ft 273 kts 206°
2026-04-26 18:25 55.70024 -3.63380 9179 ft 256 kts 239°
2026-04-26 18:25 55.69518 -3.66376 8579 ft 263 kts 271°
2026-04-26 18:25 55.70067 -3.69468 7866 ft 278 kts 303°
2026-04-26 18:25 55.71590 -3.71669 7164 ft 294 kts 336°
2026-04-26 18:26 55.73568 -3.72634 6742 ft 294 kts 345°
2026-04-26 18:26 55.75478 -3.73780 6361 ft 286 kts 328°
2026-04-26 18:26 55.77021 -3.75903 5983 ft 278 kts 314°
2026-04-26 18:26 55.78606 -3.77863 5480 ft 283 kts 339°
2026-04-26 18:27 55.80550 -3.78051 5121 ft 284 kts 13°
2026-04-26 18:27 55.82253 -3.76352 4757 ft 283 kts 47°
2026-04-26 18:27 55.83342 -3.73514 4459 ft 276 kts 61°
2026-04-26 18:27 55.84213 -3.70501 4113 ft 272 kts 64°
2026-04-26 18:28 55.85040 -3.67504 3756 ft 268 kts 64°
2026-04-26 18:28 55.85831 -3.64564 3455 ft 256 kts 65°
2026-04-26 18:28 55.86623 -3.61827 3135 ft 243 kts 59°
2026-04-26 18:28 55.87473 -3.59300 2821 ft 234 kts 57°
2026-04-26 18:29 55.88309 -3.56876 2507 ft 225 kts 57°
2026-04-26 18:29 55.89101 -3.54565 2222 ft 209 kts 57°
2026-04-26 18:29 55.89822 -3.52456 1940 ft 190 kts 57°
2026-04-26 18:29 55.90473 -3.50547 1700 ft 171 kts 57°
2026-04-26 18:30 55.91064 -3.48815 1468 ft 159 kts 57°
2026-04-26 18:30 55.91625 -3.47166 1218 ft 154 kts 55°
2026-04-26 18:30 55.92181 -3.45570 1014 ft 148 kts 57°
2026-04-26 18:30 55.92714 -3.44012 843 ft 145 kts 57°
2026-04-26 18:31 55.93219 -3.42500 631 ft 139 kts 59°
2026-04-26 18:31 55.93710 -3.41045 436 ft 135 kts 57°
2026-04-26 18:31 55.94194 -3.39623 275 ft 133 kts 57°
2026-04-26 18:31 55.94669 -3.38217 117 ft 129 kts 59°
2026-04-26 18:32 55.95055 -3.37083 108 ft 83 kts 59°
2026-04-26 18:32 55.95253 -3.36492 103 ft 20 kts 69°
2026-04-26 18:32 55.95207 -3.36366 102 ft 5 kts 149°
2026-04-26 18:32 55.95189 -3.36347 103 ft 2 kts 149°
2026-04-26 18:33 55.95181 -3.36338 103 ft 5 kts 149°
2026-04-26 18:33 55.95143 -3.36317 104 ft 13 kts 191°
2026-04-26 18:33 55.95043 -3.36548 107 ft 28 kts 239°
2026-04-26 18:33 55.94941 -3.36823 106 ft 16 kts 211°
2026-04-26 18:34 55.94849 -3.36781 105 ft 24 kts 175°
2026-04-26 18:34 55.94713 -3.36718 105 ft 12 kts 140°
2026-04-26 18:34 55.94703 -3.36619 106 ft 2 kts 87°
2026-04-26 18:34 55.94703 -3.36603 107 ft 0 kts 88°
2026-04-26 18:35 55.94703 -3.36600 107 ft 0 kts 88°